ARIANE 5 DEB [SYLDA] (44478 NORAD) Tracking and Keplerian Element Data

This shows tracking and keplerian element data for the satellite.

Feedback or suggestion? Click here.




ElementValue
Catalog44478
NameARIANE 5 DEB [SYLDA]
Epoch Orbit66
Epoch Day247.83049635
Epoch Year2019
RAAN64.573
Inclination4.5868
Eccentricity0.7281737
Argument of Perigee201.4937
Mean Anonmoly96.8792
Mean Motion2.28740371
Decay Rate9.423E-05
L11 44478U 19049D 19247.83049635 .00009423 00000-0 20200-2 0 9995
L22 44478 4.5868 64.5730 7281737 201.4937 96.8792 2.28740371 663

Live tracking and technical data element details for ARIANE 5 DEB [SYLDA] (NORAD 44478). ARIANE 5 DEB [SYLDA] can be tracked NOW for your location showing map with azimuth and elevation plus other details from your city location.

Track the satellite on the map from your city or location and see movement details for azimuth, elevation, latitude, longitude, range, height, and movement on the map or in text.







IsCatalogInMostPopularTable: catalog: 44478, numindb: 24
Update: records affected: 1



GetName: 44478 ARIANE 5 DEB [SYLDA]

Hit Count: updated at: Thu, 12 Dec 2019 00:05:56 GMT